| time (UTC) | temp F | wind direction | speed MPH | gust MPH | rain 1hr in | rain 24hr in | rain mn in | humidity % | barometer mb |
| 20260502152100 | 44 | 5 | 3.0 | 8.0 | 0.00 | 0.07 | 0.00 | 69 | 1019.0 |
| 20260502152053 | 44 | 350 | 0.0 | 2.0 | 0.00 | 0.07 | 0.00 | 70 | 1017.7 |
| 20260502151611 | 43 | 12 | 3.0 | 10.0 | 0.00 | 0.07 | 0.00 | 71 | 1019.0 |
| 20260502151603 | 43 | 355 | 0.0 | 3.0 | 0.00 | 0.07 | 0.00 | 72 | 1017.6 |
| 20260502151104 | 43 | 347 | 3.0 | 10.0 | 0.00 | 0.07 | 0.00 | 69 | 1018.9 |
| 20260502151055 | 43 | 341 | 0.0 | 3.0 | 0.00 | 0.07 | 0.00 | 70 | 1017.6 |
| 20260502150603 | 42 | 13 | 3.0 | 9.0 | 0.00 | 0.07 | 0.00 | 71 | 1018.9 |
| 20260502150549 | 42 | 348 | 0.0 | 2.0 | 0.00 | 0.07 | 0.00 | 71 | 1017.7 |
| 20260502150110 | 42 | 24 | 3.0 | 6.0 | 0.00 | 0.07 | 0.00 | 72 | 1018.9 |
| 20260502140109 | 42 | 332 | 3.0 | 12.0 | 0.00 | 0.12 | 0.00 | 73 | 1018.4 |
| 20260502130601 | 42 | 18 | 6.0 | 13.0 | 0.00 | 0.14 | 0.00 | 76 | 1018.1 |
| 20260502130528 | 42 | 349 | 0.0 | 2.0 | 0.00 | 0.14 | 0.00 | 76 | 1016.9 |
| 20260502123600 | 42 | 345 | 6.0 | 13.0 | 0.00 | 0.19 | 0.00 | 76 | 1018.2 |
| 20260502123525 | 42 | 355 | 0.0 | 3.0 | 0.00 | 0.19 | 0.00 | 76 | 1017.0 |
| 20260502123111 | 42 | 27 | 7.0 | 12.0 | 0.00 | 0.19 | 0.00 | 74 | 1018.1 |
| 20260502123024 | 42 | 346 | 0.0 | 2.0 | 0.00 | 0.19 | 0.00 | 75 | 1016.9 |
| 20260502122600 | 42 | 340 | 5.0 | 14.0 | 0.00 | 0.19 | 0.00 | 75 | 1018.2 |
| 20260502122523 | 42 | 340 | 0.0 | 3.0 | 0.00 | 0.19 | 0.00 | 75 | 1016.8 |
| 20260502122101 | 41 | 11 | 5.0 | 14.0 | 0.00 | 0.19 | 0.00 | 74 | 1018.1 |
| 20260502122025 | 42 | 347 | 0.0 | 3.0 | 0.00 | 0.19 | 0.00 | 75 | 1016.8 |
| 20260502121603 | 41 | 28 | 7.0 | 14.0 | 0.00 | 0.19 | 0.00 | 74 | 1018.2 |
| 20260502121523 | 41 | 355 | 0.0 | 3.0 | 0.00 | 0.19 | 0.00 | 74 | 1016.9 |
| 20260502121101 | 41 | 40 | 3.0 | 9.0 | 0.00 | 0.19 | 0.00 | 74 | 1018.2 |
| 20260502121026 | 41 | 340 | 0.0 | 2.0 | 0.00 | 0.19 | 0.00 | 74 | 1016.9 |
| 20260502120600 | 41 | 10 | 2.0 | 13.0 | 0.00 | 0.19 | 0.00 | 75 | 1018.2 |
| 20260502120522 | 41 | 345 | 0.0 | 4.0 | 0.00 | 0.19 | 0.00 | 76 | 1016.7 |
| 20260502120114 | 42 | 44 | 5.0 | 13.0 | 0.00 | 0.19 | 0.00 | 76 | 1018.1 |
| 20260502115600 | 42 | 5 | 3.0 | 10.0 | 0.00 | 0.28 | 0.00 | 77 | 1018.0 |
| 20260502115520 | 42 | 330 | 0.0 | 1.0 | 0.00 | 0.28 | 0.00 | 77 | 1016.7 |
| 20260502115100 | 42 | 9 | 4.0 | 10.0 | 0.00 | 0.28 | 0.00 | 77 | 1017.9 |
| 20260502115020 | 42 | 351 | 0.0 | 2.0 | 0.00 | 0.28 | 0.00 | 77 | 1016.6 |
| 20260502114604 | 42 | 17 | 4.0 | 12.0 | 0.00 | 0.28 | 0.00 | 77 | 1017.8 |
| 20260502114519 | 42 | 349 | 0.0 | 3.0 | 0.00 | 0.28 | 0.00 | 78 | 1016.7 |
| 20260502114101 | 42 | 16 | 5.0 | 12.0 | 0.00 | 0.28 | 0.00 | 77 | 1017.8 |
| 20260502114019 | 42 | 343 | 0.0 | 3.0 | 0.00 | 0.28 | 0.00 | 78 | 1016.5 |
| 20260502113558 | 42 | 28 | 7.0 | 12.0 | 0.00 | 0.28 | 0.00 | 78 | 1017.8 |
| 20260502113519 | 42 | 355 | 0.0 | 1.0 | 0.00 | 0.28 | 0.00 | 78 | 1016.6 |
| 20260502113059 | 42 | 38 | 5.0 | 11.0 | 0.00 | 0.28 | 0.00 | 77 | 1017.9 |
| 20260502113018 | 42 | 355 | 0.0 | 1.0 | 0.00 | 0.28 | 0.00 | 77 | 1016.5 |
| 20260502112557 | 42 | 24 | 6.0 | 11.0 | 0.00 | 0.28 | 0.00 | 77 | 1017.8 |
| 20260502112516 | 41 | 350 | 0.0 | 1.0 | 0.00 | 0.28 | 0.00 | 77 | 1016.6 |
| 20260502112100 | 41 | 13 | 4.0 | 11.0 | 0.00 | 0.28 | 0.00 | 77 | 1017.7 |
| 20260502112018 | 41 | 355 | 0.0 | 1.0 | 0.00 | 0.28 | 0.00 | 77 | 1016.5 |
| 20260502111602 | 41 | 360 | 4.0 | 11.0 | 0.00 | 0.28 | 0.00 | 77 | 1017.7 |
| 20260502111514 | 41 | 9 | 0.0 | 1.0 | 0.00 | 0.28 | 0.00 | 77 | 1016.4 |
| 20260502111058 | 41 | 9 | 3.0 | 11.0 | 0.00 | 0.28 | 0.00 | 76 | 1017.6 |
| 20260502111013 | 41 | 348 | 0.0 | 1.0 | 0.00 | 0.28 | 0.00 | 77 | 1016.4 |
| 20260502110558 | 41 | 22 | 2.0 | 11.0 | 0.00 | 0.28 | 0.00 | 77 | 1017.7 |
| 20260502110512 | 41 | 355 | 0.0 | 1.0 | 0.00 | 0.28 | 0.00 | 78 | 1016.4 |
| 20260502110100 | 41 | 14 | 7.0 | 12.0 | 0.00 | 0.28 | 0.00 | 78 | 1017.6 |
| 20260502110012 | 41 | 360 | 0.0 | 1.0 | 0.00 | 0.41 | 0.00 | 78 | 1016.3 |
| 20260502105600 | 41 | 15 | 7.0 | 12.0 | 0.00 | 0.41 | 0.00 | 78 | 1017.5 |
| 20260502105510 | 41 | 355 | 0.0 | 1.0 | 0.00 | 0.41 | 0.00 | 78 | 1016.3 |
| 20260502105100 | 41 | 26 | 7.0 | 12.0 | 0.00 | 0.41 | 0.00 | 78 | 1017.6 |
| 20260502105010 | 41 | 360 | 0.0 | 1.0 | 0.00 | 0.41 | 0.00 | 79 | 1016.3 |
| 20260502104601 | 41 | 13 | 5.0 | 10.0 | 0.00 | 0.41 | 0.00 | 78 | 1017.5 |
| 20260502104510 | 41 | 346 | 0.0 | 1.0 | 0.00 | 0.41 | 0.00 | 79 | 1016.4 |
| 20260502104102 | 41 | 20 | 6.0 | 11.0 | 0.00 | 0.41 | 0.00 | 78 | 1017.5 |
| 20260502104010 | 41 | 5 | 0.0 | 1.0 | 0.00 | 0.41 | 0.00 | 79 | 1016.1 |
| 20260502103600 | 40 | 24 | 5.0 | 11.0 | 0.00 | 0.41 | 0.00 | 78 | 1017.4 |
| 20260502103510 | 40 | 5 | 0.0 | 1.0 | 0.00 | 0.41 | 0.00 | 79 | 1016.2 |
| 20260502103113 | 40 | 5 | 6.0 | 13.0 | 0.00 | 0.41 | 0.00 | 79 | 1017.5 |
| 20260502103017 | 40 | 5 | 0.0 | 0.0 | 0.00 | 0.41 | 0.00 | 79 | 1016.1 |
| 20260502102558 | 40 | 16 | 6.0 | 13.0 | 0.00 | 0.41 | 0.00 | 79 | 1017.5 |
| 20260502102509 | 40 | 5 | 0.0 | 1.0 | 0.00 | 0.41 | 0.00 | 79 | 1016.1 |
| 20260502102101 | 40 | 27 | 7.0 | 13.0 | 0.00 | 0.41 | 0.00 | 79 | 1017.4 |
| 20260502102009 | 40 | 31 | 0.0 | 1.0 | 0.00 | 0.41 | 0.00 | 80 | 1016.1 |
| 20260502101601 | 40 | 17 | 7.0 | 12.0 | 0.00 | 0.41 | 0.00 | 80 | 1017.5 |
| 20260502101509 | 40 | 11 | 0.0 | 1.0 | 0.00 | 0.41 | 0.00 | 81 | 1016.2 |
| 20260502101059 | 40 | 46 | 5.0 | 12.0 | 0.00 | 0.41 | 0.00 | 80 | 1017.4 |
| 20260502101008 | 40 | 5 | 0.0 | 1.0 | 0.00 | 0.41 | 0.00 | 81 | 1016.1 |
| 20260502100558 | 40 | 38 | 7.0 | 13.0 | 0.00 | 0.41 | 0.00 | 81 | 1017.4 |
| 20260502100508 | 40 | 360 | 0.0 | 1.0 | 0.00 | 0.41 | 0.00 | 82 | 1016.1 |
| 20260502100124 | 40 | 27 | 6.0 | 13.0 | 0.00 | 0.41 | 0.00 | 82 | 1017.4 |
| 20260502091506 | 39 | 355 | 0.0 | 1.0 | 0.00 | 0.50 | 0.00 | 87 | 1015.7 |
| 20260502091100 | 39 | 24 | 6.0 | 12.0 | 0.00 | 0.50 | 0.00 | 87 | 1017.2 |
| 20260502091004 | 39 | 13 | 0.0 | 0.0 | 0.00 | 0.50 | 0.00 | 87 | 1015.7 |
| 20260502090601 | 39 | 5 | 7.0 | 15.0 | 0.00 | 0.50 | 0.00 | 87 | 1017.1 |
| 20260502090510 | 39 | 17 | 0.0 | 2.0 | 0.00 | 0.50 | 0.00 | 88 | 1015.7 |
| 20260502090107 | 39 | 40 | 7.0 | 15.0 | 0.00 | 0.50 | 0.00 | 87 | 1017.1 |
| 20260502080105 | 41 | 360 | 1.0 | 3.0 | 0.00 | 0.58 | 0.00 | 85 | 1016.4 |
| 20260502071100 | 42 | 82 | 0.0 | 9.0 | 0.00 | 0.58 | 0.00 | 84 | 1016.5 |
| 20260502071050 | 42 | 65 | 0.0 | 0.0 | 0.00 | 0.59 | 0.00 | 85 | 1015.2 |
| 20260502070602 | 42 | 47 | 2.0 | 9.0 | 0.00 | 0.58 | 0.00 | 84 | 1016.6 |
| 20260502070552 | 42 | 65 | 0.0 | 0.0 | 0.00 | 0.59 | 0.00 | 85 | 1015.3 |
| 20260502070049 | 42 | 64 | 0.0 | 0.0 | 0.00 | 0.59 | 0.00 | 85 | 1015.1 |
| 20260502065600 | 42 | 51 | 2.0 | 6.0 | 0.00 | 0.58 | 0.00 | 84 | 1016.7 |
| 20260502065549 | 42 | 74 | 0.0 | 0.0 | 0.00 | 0.59 | 0.00 | 85 | 1015.2 |
| 20260502065101 | 42 | 0 | 1.0 | 6.0 | 0.00 | 0.58 | 0.00 | 84 | 1016.6 |
| 20260502065051 | 42 | 74 | 0.0 | 0.0 | 0.00 | 0.59 | 0.00 | 84 | 1015.1 |
| 20260502064610 | 42 | 84 | 2.0 | 7.0 | 0.00 | 0.58 | 0.00 | 84 | 1016.5 |
| 20260502064557 | 42 | 74 | 0.0 | 0.0 | 0.00 | 0.59 | 0.00 | 85 | 1015.2 |
| 20260502064059 | 42 | 31 | 3.0 | 7.0 | 0.00 | 0.58 | 0.00 | 85 | 1016.8 |
| 20260502064046 | 42 | 71 | 0.0 | 0.0 | 0.00 | 0.59 | 0.00 | 85 | 1015.4 |
| 20260502063600 | 42 | 41 | 1.0 | 5.0 | 0.00 | 0.58 | 0.00 | 85 | 1016.8 |
| 20260502063546 | 42 | 71 | 0.0 | 0.0 | 0.00 | 0.59 | 0.00 | 86 | 1015.4 |
| 20260502063109 | 42 | 61 | 0.0 | 4.0 | 0.00 | 0.58 | 0.00 | 85 | 1016.7 |
| 20260502063046 | 43 | 163 | 0.0 | 0.0 | 0.00 | 0.59 | 0.00 | 86 | 1015.2 |
| 20260502062558 | 42 | 0 | 0.0 | 4.0 | 0.00 | 0.58 | 0.00 | 85 | 1016.7 |
| 20260502062544 | 42 | 163 | 0.0 | 0.0 | 0.00 | 0.59 | 0.00 | 86 | 1015.3 |
| 20260502062059 | 42 | 0 | 1.0 | 7.0 | 0.00 | 0.58 | 0.00 | 85 | 1016.7 |
| 20260502062045 | 42 | 163 | 0.0 | 0.0 | 0.00 | 0.59 | 0.00 | 86 | 1015.4 |
| 20260502061605 | 42 | 175 | 0.0 | 7.0 | 0.00 | 0.58 | 0.00 | 85 | 1016.6 |
| 20260502061545 | 42 | 163 | 0.0 | 0.0 | 0.00 | 0.59 | 0.00 | 86 | 1015.3 |
| 20260502061100 | 42 | 175 | 3.0 | 7.0 | 0.00 | 0.58 | 0.00 | 85 | 1016.7 |
| 20260502061045 | 43 | 162 | 0.0 | 0.0 | 0.00 | 0.59 | 0.00 | 86 | 1015.4 |
| 20260502060559 | 43 | 159 | 1.0 | 4.0 | 0.00 | 0.58 | 0.00 | 85 | 1016.7 |
| 20260502060544 | 43 | 141 | 0.0 | 0.0 | 0.00 | 0.59 | 0.00 | 86 | 1015.6 |
| 20260502060046 | 43 | 165 | 0.0 | 0.0 | 0.00 | 0.59 | 0.00 | 86 | 1015.4 |
| 20260502055600 | 43 | 0 | 0.0 | 5.0 | 0.00 | 0.58 | 0.00 | 85 | 1016.7 |
| 20260502055543 | 43 | 165 | 0.0 | 0.0 | 0.00 | 0.59 | 0.00 | 86 | 1015.5 |
| 20260502055059 | 43 | 0 | 0.0 | 5.0 | 0.00 | 0.58 | 0.00 | 85 | 1016.8 |
| 20260502055042 | 42 | 164 | 0.0 | 0.0 | 0.00 | 0.59 | 0.00 | 86 | 1015.5 |
| 20260502054558 | 42 | 117 | 2.0 | 5.0 | 0.00 | 0.58 | 0.00 | 85 | 1016.8 |
| 20260502054548 | 43 | 165 | 0.0 | 0.0 | 0.00 | 0.59 | 0.00 | 86 | 1015.5 |
| 20260502054100 | 43 | 0 | 2.0 | 4.0 | 0.00 | 0.58 | 0.00 | 85 | 1016.9 |
| 20260502054041 | 43 | 165 | 0.0 | 0.0 | 0.00 | 0.59 | 0.00 | 85 | 1015.6 |
| 20260502053603 | 43 | 122 | 2.0 | 4.0 | 0.00 | 0.58 | 0.00 | 85 | 1017.0 |
| 20260502053543 | 42 | 165 | 0.0 | 0.0 | 0.00 | 0.59 | 0.00 | 85 | 1015.7 |
| 20260502053101 | 43 | 0 | 1.0 | 3.0 | 0.00 | 0.58 | 0.00 | 85 | 1016.9 |
| 20260502053041 | 43 | 165 | 0.0 | 0.0 | 0.00 | 0.59 | 0.00 | 85 | 1015.6 |
| 20260502052558 | 43 | 0 | 1.0 | 4.0 | 0.00 | 0.58 | 0.00 | 85 | 1016.9 |
| 20260502052540 | 43 | 164 | 0.0 | 0.0 | 0.00 | 0.59 | 0.00 | 85 | 1015.6 |
| 20260502052059 | 43 | 0 | 0.0 | 5.0 | 0.00 | 0.58 | 0.00 | 85 | 1017.0 |
| 20260502052042 | 43 | 165 | 0.0 | 0.0 | 0.00 | 0.59 | 0.00 | 85 | 1015.7 |
| 20260502051652 | 43 | 214 | 2.0 | 5.0 | 0.00 | 0.58 | 0.00 | 85 | 1017.1 |
| 20260502051541 | 43 | 126 | 0.0 | 0.0 | 0.00 | 0.59 | 0.00 | 85 | 1015.7 |
| 20260502051058 | 43 | 166 | 1.0 | 5.0 | 0.00 | 0.58 | 0.00 | 85 | 1017.0 |
| 20260502051037 | 43 | 126 | 0.0 | 0.0 | 0.00 | 0.59 | 0.00 | 85 | 1015.9 |
| 20260502050558 | 43 | 182 | 2.0 | 6.0 | 0.00 | 0.58 | 0.00 | 85 | 1017.1 |
| 20260502050541 | 43 | 126 | 0.0 | 0.0 | 0.00 | 0.59 | 0.00 | 85 | 1015.8 |
| 20260502050037 | 43 | 111 | 0.0 | 0.0 | 0.00 | 0.59 | 0.00 | 85 | 1015.9 |
| 20260502045558 | 43 | 121 | 1.0 | 3.0 | 0.00 | 0.58 | 0.00 | 85 | 1017.1 |
| 20260502045537 | 43 | 64 | 0.0 | 0.0 | 0.00 | 0.59 | 0.00 | 85 | 1015.9 |
| 20260502045058 | 43 | 0 | 0.0 | 5.0 | 0.00 | 0.58 | 0.00 | 85 | 1017.0 |
| 20260502045037 | 43 | 63 | 0.0 | 0.0 | 0.00 | 0.59 | 0.00 | 85 | 1015.8 |
| 20260502044609 | 43 | 121 | 0.0 | 6.0 | 0.00 | 0.58 | 0.00 | 85 | 1017.1 |
| 20260502044539 | 43 | 63 | 0.0 | 0.0 | 0.00 | 0.59 | 0.00 | 85 | 1015.8 |
| 20260502044058 | 43 | 119 | 1.0 | 6.0 | 0.00 | 0.58 | 0.00 | 85 | 1017.1 |
| 20260502044034 | 43 | 63 | 0.0 | 0.0 | 0.00 | 0.59 | 0.00 | 85 | 1015.7 |
| 20260502043558 | 43 | 85 | 1.0 | 3.0 | 0.00 | 0.58 | 0.00 | 85 | 1017.0 |
| 20260502043533 | 43 | 61 | 0.0 | 0.0 | 0.00 | 0.59 | 0.00 | 85 | 1015.6 |
| 20260502043110 | 43 | 76 | 1.0 | 7.0 | 0.00 | 0.58 | 0.00 | 85 | 1017.1 |
| 20260502043033 | 43 | 63 | 0.0 | 0.0 | 0.00 | 0.59 | 0.00 | 85 | 1015.7 |
| 20260502042603 | 43 | 98 | 2.0 | 7.0 | 0.00 | 0.58 | 0.00 | 84 | 1017.2 |
| 20260502042533 | 43 | 61 | 0.0 | 0.0 | 0.00 | 0.59 | 0.00 | 85 | 1015.7 |
| 20260502042058 | 43 | 87 | 2.0 | 8.0 | 0.00 | 0.58 | 0.00 | 84 | 1017.2 |
| 20260502042033 | 43 | 150 | 0.0 | 0.0 | 0.00 | 0.59 | 0.00 | 85 | 1015.7 |
| 20260502041600 | 43 | 101 | 1.0 | 8.0 | 0.00 | 0.58 | 0.00 | 84 | 1017.2 |
| 20260502041534 | 43 | 145 | 0.0 | 0.0 | 0.00 | 0.59 | 0.00 | 85 | 1015.7 |
| 20260502041101 | 43 | 92 | 3.0 | 8.0 | 0.00 | 0.58 | 0.00 | 84 | 1017.0 |
| 20260502041029 | 43 | 44 | 0.0 | 1.0 | 0.00 | 0.59 | 0.00 | 85 | 1015.7 |
| 20260502040558 | 43 | 86 | 2.0 | 10.0 | 0.00 | 0.58 | 0.00 | 84 | 1016.9 |
| 20260502040528 | 43 | 72 | 0.0 | 1.0 | 0.00 | 0.59 | 0.00 | 85 | 1015.7 |
| 20260502040059 | 43 | 86 | 2.0 | 10.0 | 0.00 | 0.58 | 0.00 | 84 | 1016.8 |
| 20260502040038 | 43 | 68 | 0.0 | 1.0 | 0.00 | 0.59 | 0.59 | 85 | 1015.7 |
| 20260502035558 | 43 | 73 | 4.0 | 10.0 | 0.00 | 0.58 | 0.58 | 84 | 1016.9 |
| 20260502035527 | 43 | 44 | 0.0 | 1.0 | 0.00 | 0.59 | 0.59 | 84 | 1015.5 |
| 20260502035100 | 43 | 54 | 3.0 | 12.0 | 0.00 | 0.58 | 0.58 | 84 | 1016.9 |
| 20260502035027 | 43 | 65 | 0.0 | 1.0 | 0.00 | 0.59 | 0.59 | 84 | 1015.6 |
| 20260502034600 | 43 | 91 | 5.0 | 12.0 | 0.00 | 0.58 | 0.58 | 84 | 1016.9 |
| 20260502034529 | 43 | 67 | 0.0 | 2.0 | 0.00 | 0.59 | 0.59 | 85 | 1015.5 |
| 20260502034059 | 43 | 81 | 5.0 | 12.0 | 0.00 | 0.58 | 0.58 | 84 | 1016.9 |
| 20260502034029 | 43 | 43 | 0.0 | 3.0 | 0.00 | 0.59 | 0.59 | 85 | 1015.5 |
| 20260502033559 | 43 | 51 | 6.0 | 13.0 | 0.00 | 0.58 | 0.58 | 84 | 1016.8 |
| 20260502033529 | 43 | 51 | 0.0 | 3.0 | 0.00 | 0.59 | 0.59 | 85 | 1015.6 |
| 20260502033100 | 43 | 48 | 8.0 | 14.0 | 0.00 | 0.58 | 0.58 | 84 | 1016.8 |
| 20260502033026 | 43 | 54 | 0.0 | 3.0 | 0.00 | 0.59 | 0.59 | 85 | 1015.5 |
| 20260502032559 | 43 | 55 | 8.0 | 17.0 | 0.00 | 0.58 | 0.58 | 85 | 1016.8 |
| 20260502032525 | 43 | 28 | 0.0 | 7.0 | 0.00 | 0.59 | 0.59 | 85 | 1015.5 |
| 20260502032101 | 43 | 53 | 9.0 | 17.0 | 0.00 | 0.58 | 0.58 | 85 | 1016.7 |
| 20260502032025 | 43 | 51 | 1.0 | 7.0 | 0.00 | 0.59 | 0.59 | 85 | 1015.5 |
| 20260502031612 | 43 | 51 | 9.0 | 18.0 | 0.00 | 0.58 | 0.58 | 85 | 1016.6 |
| 20260502031525 | 43 | 11 | 0.0 | 6.0 | 0.00 | 0.59 | 0.59 | 85 | 1015.5 |
| 20260502031059 | 43 | 42 | 10.0 | 18.0 | 0.00 | 0.58 | 0.58 | 84 | 1016.6 |
| 20260502031025 | 43 | 38 | 0.0 | 6.0 | 0.00 | 0.59 | 0.59 | 85 | 1015.4 |
| 20260502030603 | 43 | 27 | 10.0 | 18.0 | 0.00 | 0.58 | 0.58 | 84 | 1016.7 |
| 20260502030525 | 43 | 39 | 0.0 | 6.0 | 0.00 | 0.59 | 0.59 | 84 | 1015.3 |
| 20260502030058 | 43 | 63 | 10.0 | 18.0 | 0.00 | 0.58 | 0.58 | 84 | 1016.7 |
| 20260502030027 | 43 | 44 | 0.0 | 5.0 | 0.00 | 0.59 | 0.59 | 84 | 1015.4 |
| 20260502025600 | 44 | 30 | 12.0 | 18.0 | 0.00 | 0.58 | 0.58 | 84 | 1016.6 |
| 20260502025525 | 44 | 19 | 0.0 | 5.0 | 0.00 | 0.59 | 0.59 | 85 | 1015.3 |
| 20260502025102 | 44 | 42 | 11.0 | 20.0 | 0.00 | 0.58 | 0.58 | 84 | 1016.5 |
| 20260502025022 | 44 | 355 | 0.0 | 4.0 | 0.00 | 0.59 | 0.59 | 85 | 1015.3 |
| 20260502024558 | 44 | 27 | 13.0 | 20.0 | 0.00 | 0.58 | 0.58 | 84 | 1016.6 |
| 20260502024525 | 44 | 5 | 2.0 | 5.0 | 0.00 | 0.59 | 0.59 | 84 | 1015.2 |
| 20260502024100 | 44 | 30 | 12.0 | 17.0 | 0.00 | 0.58 | 0.58 | 83 | 1016.4 |
| 20260502024023 | 44 | 350 | 2.0 | 6.0 | 0.00 | 0.59 | 0.59 | 83 | 1015.2 |
| 20260502023600 | 44 | 26 | 13.0 | 19.0 | 0.00 | 0.58 | 0.58 | 83 | 1016.4 |
| 20260502023523 | 45 | 9 | 2.0 | 6.0 | 0.00 | 0.59 | 0.59 | 83 | 1015.1 |
| 20260502023058 | 45 | 13 | 10.0 | 19.0 | 0.00 | 0.58 | 0.58 | 82 | 1016.4 |
| 20260502023022 | 45 | 360 | 1.0 | 4.0 | 0.00 | 0.59 | 0.59 | 83 | 1015.1 |
| 20260502022558 | 45 | 34 | 8.0 | 15.0 | 0.00 | 0.58 | 0.58 | 82 | 1016.5 |
| 20260502022522 | 45 | 344 | 0.0 | 2.0 | 0.00 | 0.59 | 0.59 | 82 | 1015.2 |
| 20260502022101 | 45 | 29 | 5.0 | 11.0 | 0.00 | 0.58 | 0.58 | 82 | 1016.4 |
| 20260502022022 | 45 | 346 | 0.0 | 2.0 | 0.00 | 0.59 | 0.59 | 82 | 1015.2 |
| 20260502021600 | 44 | 329 | 3.0 | 12.0 | 0.00 | 0.58 | 0.58 | 83 | 1016.4 |
| 20260502021521 | 44 | 338 | 0.0 | 1.0 | 0.00 | 0.59 | 0.59 | 84 | 1015.2 |
| 20260502021101 | 44 | 324 | 4.0 | 12.0 | 0.01 | 0.58 | 0.58 | 84 | 1016.5 |
| 20260502021022 | 44 | 336 | 0.0 | 1.0 | 0.01 | 0.59 | 0.59 | 85 | 1015.2 |
| 20260502020557 | 44 | 317 | 3.0 | 10.0 | 0.01 | 0.58 | 0.58 | 86 | 1016.5 |
| 20260502020521 | 44 | 343 | 0.0 | 1.0 | 0.01 | 0.59 | 0.59 | 86 | 1015.1 |
| 20260502020111 | 43 | 5 | 1.0 | 10.0 | 0.01 | 0.58 | 0.58 | 86 | 1016.4 |
| 20260502020022 | 43 | 294 | 0.0 | 0.0 | 0.01 | 0.59 | 0.59 | 87 | 1015.1 |
| 20260502015602 | 43 | 338 | 0.0 | 7.0 | 0.01 | 0.58 | 0.58 | 87 | 1016.3 |
| 20260502015521 | 43 | 294 | 0.0 | 1.0 | 0.01 | 0.59 | 0.59 | 88 | 1015.1 |
| 20260502015102 | 43 | 340 | 2.0 | 8.0 | 0.02 | 0.58 | 0.58 | 87 | 1016.3 |
| 20260502015020 | 43 | 286 | 0.0 | 1.0 | 0.02 | 0.59 | 0.59 | 88 | 1014.9 |
| 20260502014558 | 43 | 0 | 0.0 | 8.0 | 0.03 | 0.58 | 0.58 | 88 | 1016.4 |
| 20260502014536 | 42 | 301 | 0.0 | 0.0 | 0.04 | 0.59 | 0.59 | 88 | 1015.0 |
| 20260502014150 | 42 | 282 | 1.0 | 6.0 | 0.04 | 0.58 | 0.58 | 88 | 1016.4 |
| 20260502014020 | 42 | 301 | 0.0 | 0.0 | 0.04 | 0.59 | 0.59 | 88 | 1015.0 |
| 20260502013519 | 42 | 301 | 0.0 | 0.0 | 0.04 | 0.59 | 0.59 | 88 | 1014.9 |
| 20260502013019 | 42 | 301 | 0.0 | 0.0 | 0.04 | 0.59 | 0.59 | 88 | 1014.8 |
| 20260502012600 | 42 | 0 | 0.0 | 2.0 | 0.04 | 0.58 | 0.58 | 87 | 1016.3 |
| 20260502012520 | 42 | 301 | 0.0 | 0.0 | 0.04 | 0.59 | 0.59 | 88 | 1014.8 |
| 20260502012058 | 42 | 0 | 0.0 | 2.0 | 0.04 | 0.58 | 0.58 | 87 | 1016.2 |
| 20260502012020 | 42 | 301 | 0.0 | 0.0 | 0.04 | 0.59 | 0.59 | 87 | 1014.7 |
| 20260502011600 | 42 | 244 | 1.0 | 3.0 | 0.04 | 0.58 | 0.58 | 87 | 1016.1 |
| 20260502011519 | 42 | 301 | 0.0 | 0.0 | 0.04 | 0.59 | 0.59 | 87 | 1014.8 |
| 20260502011057 | 42 | 0 | 0.0 | 4.0 | 0.03 | 0.58 | 0.58 | 86 | 1016.1 |
| 20260502011018 | 42 | 301 | 0.0 | 0.0 | 0.03 | 0.57 | 0.57 | 86 | 1014.7 |
| 20260502010601 | 42 | 196 | 2.0 | 4.0 | 0.04 | 0.58 | 0.58 | 85 | 1016.0 |
| 20260502010519 | 42 | 301 | 0.0 | 0.0 | 0.04 | 0.57 | 0.57 | 86 | 1014.6 |
| 20260502010124 | 43 | 146 | 2.0 | 4.0 | 0.05 | 0.58 | 0.58 | 85 | 1016.0 |
| 20260502010018 | 43 | 301 | 0.0 | 0.0 | 0.05 | 0.57 | 0.57 | 85 | 1014.6 |
| 20260502005604 | 43 | 167 | 0.0 | 4.0 | 0.06 | 0.58 | 0.58 | 84 | 1016.1 |
| 20260502005518 | 43 | 301 | 0.0 | 1.0 | 0.06 | 0.57 | 0.57 | 84 | 1014.6 |
| 20260502005059 | 43 | 0 | 0.0 | 6.0 | 0.05 | 0.57 | 0.57 | 84 | 1016.3 |
| 20260502005020 | 43 | 301 | 0.0 | 1.0 | 0.04 | 0.56 | 0.56 | 84 | 1014.9 |
| 20260502004600 | 43 | 0 | 0.0 | 9.0 | 0.04 | 0.56 | 0.56 | 84 | 1016.3 |
| 20260502004522 | 43 | 300 | 0.0 | 1.0 | 0.03 | 0.55 | 0.55 | 84 | 1014.8 |
| 20260502004450 | 43 | 347 | 1.0 | 9.0 | 0.03 | 0.55 | 0.55 | 83 | 1016.3 |
| 20260502004017 | 43 | 292 | 0.0 | 11.0 | 0.03 | 0.55 | 0.55 | 84 | 1014.8 |
| 20260502003604 | 43 | 126 | 1.0 | 9.0 | 0.03 | 0.55 | 0.55 | 84 | 1016.2 |
| 20260502003519 | 43 | 301 | 2.0 | 11.0 | 0.03 | 0.55 | 0.55 | 85 | 1014.7 |
| 20260502003058 | 43 | 0 | 0.0 | 3.0 | 0.03 | 0.55 | 0.55 | 85 | 1016.2 |
| 20260502003015 | 43 | 269 | 0.0 | 0.0 | 0.03 | 0.55 | 0.55 | 85 | 1014.6 |
| 20260502002559 | 43 | 0 | 0.0 | 5.0 | 0.03 | 0.55 | 0.55 | 85 | 1015.8 |
| 20260502002514 | 43 | 267 | 0.0 | 0.0 | 0.03 | 0.55 | 0.55 | 85 | 1014.3 |
| 20260502002059 | 43 | 270 | 1.0 | 9.0 | 0.03 | 0.55 | 0.55 | 84 | 1015.8 |
| 20260502002014 | 43 | 267 | 0.0 | 0.0 | 0.03 | 0.55 | 0.55 | 84 | 1014.2 |
| 20260502001559 | 43 | 226 | 2.0 | 9.0 | 0.03 | 0.55 | 0.55 | 83 | 1015.7 |
| 20260502001524 | 44 | 267 | 0.0 | 1.0 | 0.03 | 0.55 | 0.55 | 83 | 1014.1 |
| 20260502001059 | 44 | 229 | 3.0 | 10.0 | 0.03 | 0.55 | 0.55 | 80 | 1015.6 |
| 20260502001013 | 44 | 274 | 0.0 | 2.0 | 0.03 | 0.55 | 0.55 | 80 | 1014.1 |
| 20260502000601 | 45 | 267 | 2.0 | 14.0 | 0.02 | 0.54 | 0.54 | 75 | 1015.8 |
| 20260502000520 | 45 | 275 | 0.0 | 8.0 | 0.02 | 0.54 | 0.54 | 75 | 1014.2 |
| 20260502000101 | 46 | 285 | 4.0 | 15.0 | 0.01 | 0.52 | 0.52 | 75 | 1015.8 |
| 20260502000011 | 46 | 273 | 0.0 | 2.0 | 0.01 | 0.53 | 0.53 | 75 | 1014.1 |
| 20260501235601 | 46 | 11 | 6.0 | 15.0 | 0.00 | 0.52 | 0.52 | 73 | 1015.6 |
| 20260501235511 | 46 | 248 | 0.0 | 1.0 | 0.00 | 0.52 | 0.52 | 73 | 1014.0 |
| 20260501235059 | 46 | 236 | 7.0 | 15.0 | 0.00 | 0.52 | 0.52 | 72 | 1015.4 |
| 20260501235010 | 46 | 250 | 0.0 | 1.0 | 0.00 | 0.52 | 0.52 | 72 | 1013.8 |
| 20260501234601 | 47 | 255 | 5.0 | 14.0 | 0.00 | 0.52 | 0.52 | 72 | 1015.4 |
| 20260501234510 | 47 | 261 | 0.0 | 1.0 | 0.00 | 0.52 | 0.52 | 73 | 1013.9 |
| 20260501234101 | 47 | 248 | 7.0 | 14.0 | 0.00 | 0.52 | 0.52 | 74 | 1015.5 |
| 20260501234010 | 47 | 214 | 0.0 | 1.0 | 0.00 | 0.52 | 0.52 | 75 | 1013.9 |
| 20260501233602 | 47 | 243 | 4.0 | 10.0 | 0.00 | 0.52 | 0.52 | 75 | 1015.4 |
| 20260501233511 | 47 | 242 | 0.0 | 0.0 | 0.00 | 0.52 | 0.52 | 76 | 1013.9 |
| 20260501233106 | 47 | 238 | 4.0 | 10.0 | 0.00 | 0.52 | 0.52 | 75 | 1015.5 |
| 20260501233010 | 47 | 242 | 0.0 | 0.0 | 0.00 | 0.52 | 0.52 | 76 | 1014.0 |
| 20260501232559 | 47 | 227 | 2.0 | 7.0 | 0.00 | 0.52 | 0.52 | 77 | 1015.4 |
| 20260501232514 | 47 | 244 | 0.0 | 0.0 | 0.00 | 0.52 | 0.52 | 78 | 1013.9 |
| 20260501232103 | 47 | 216 | 3.0 | 8.0 | 0.00 | 0.52 | 0.52 | 76 | 1015.5 |
| 20260501232010 | 47 | 242 | 0.0 | 0.0 | 0.00 | 0.52 | 0.52 | 77 | 1013.9 |
| 20260501231612 | 47 | 222 | 4.0 | 9.0 | 0.00 | 0.52 | 0.52 | 76 | 1015.5 |
| 20260501231509 | 47 | 242 | 0.0 | 0.0 | 0.00 | 0.52 | 0.52 | 77 | 1013.8 |
| 20260501231059 | 47 | 217 | 3.0 | 9.0 | 0.00 | 0.52 | 0.52 | 76 | 1015.3 |
| 20260501231009 | 47 | 253 | 0.0 | 1.0 | 0.00 | 0.52 | 0.52 | 77 | 1013.8 |
| 20260501230559 | 47 | 213 | 4.0 | 8.0 | 0.00 | 0.52 | 0.52 | 76 | 1015.4 |
| 20260501230510 | 47 | 254 | 0.0 | 0.0 | 0.00 | 0.52 | 0.52 | 77 | 1013.7 |
| 20260501230120 | 47 | 214 | 3.0 | 9.0 | 0.00 | 0.52 | 0.52 | 77 | 1015.4 |
| 20260501230012 | 47 | 339 | 0.0 | 0.0 | 0.00 | 0.52 | 0.52 | 77 | 1013.9 |
| 20260501225559 | 47 | 202 | 3.0 | 9.0 | 0.00 | 0.52 | 0.52 | 76 | 1015.5 |
| 20260501225509 | 47 | 339 | 0.0 | 0.0 | 0.00 | 0.52 | 0.52 | 77 | 1013.9 |
| 20260501225059 | 47 | 228 | 3.0 | 6.0 | 0.00 | 0.52 | 0.52 | 75 | 1015.6 |
| 20260501225009 | 47 | 342 | 0.0 | 0.0 | 0.00 | 0.52 | 0.52 | 76 | 1013.9 |
| 20260501224603 | 48 | 192 | 2.0 | 5.0 | 0.00 | 0.52 | 0.52 | 75 | 1015.5 |
| 20260501224508 | 48 | 342 | 0.0 | 0.0 | 0.00 | 0.52 | 0.52 | 75 | 1013.9 |
| 20260501224058 | 48 | 205 | 1.0 | 5.0 | 0.00 | 0.52 | 0.52 | 73 | 1015.5 |
| 20260501224008 | 48 | 342 | 0.0 | 0.0 | 0.00 | 0.52 | 0.52 | 74 | 1013.8 |
| 20260501223600 | 48 | 0 | 1.0 | 4.0 | 0.00 | 0.52 | 0.52 | 71 | 1015.4 |
| 20260501223508 | 48 | 342 | 0.0 | 0.0 | 0.00 | 0.52 | 0.52 | 71 | 1013.9 |
| 20260501223103 | 48 | 242 | 2.0 | 4.0 | 0.00 | 0.52 | 0.52 | 71 | 1015.4 |
| 20260501223014 | 48 | 342 | 0.0 | 0.0 | 0.00 | 0.52 | 0.52 | 72 | 1013.9 |
| 20260501222600 | 48 | 241 | 2.0 | 5.0 | 0.00 | 0.52 | 0.52 | 72 | 1015.3 |
| 20260501222509 | 48 | 342 | 0.0 | 0.0 | 0.00 | 0.52 | 0.52 | 73 | 1013.9 |
| 20260501222104 | 48 | 216 | 1.0 | 5.0 | 0.00 | 0.52 | 0.52 | 73 | 1015.4 |
| 20260501222007 | 48 | 342 | 0.0 | 0.0 | 0.00 | 0.52 | 0.52 | 73 | 1013.9 |
| 20260501221600 | 48 | 0 | 2.0 | 5.0 | 0.00 | 0.52 | 0.52 | 73 | 1015.4 |
| 20260501221506 | 48 | 342 | 0.0 | 0.0 | 0.00 | 0.52 | 0.52 | 74 | 1013.9 |
| 20260501221101 | 48 | 238 | 1.0 | 4.0 | 0.00 | 0.52 | 0.52 | 71 | 1015.4 |
| 20260501221007 | 48 | 342 | 0.0 | 0.0 | 0.00 | 0.52 | 0.52 | 72 | 1013.9 |
| 20260501220559 | 48 | 232 | 1.0 | 6.0 | 0.00 | 0.52 | 0.52 | 73 | 1015.4 |
| 20260501220507 | 48 | 342 | 0.0 | 0.0 | 0.00 | 0.52 | 0.52 | 73 | 1013.8 |
| 20260501220059 | 48 | 243 | 1.0 | 6.0 | 0.00 | 0.52 | 0.52 | 72 | 1015.4 |
| 20260501220007 | 48 | 342 | 0.0 | 0.0 | 0.00 | 0.52 | 0.52 | 72 | 1013.9 |
| 20260501215602 | 48 | 267 | 2.0 | 7.0 | 0.00 | 0.52 | 0.52 | 72 | 1015.3 |
| 20260501215506 | 48 | 345 | 0.0 | 0.0 | 0.00 | 0.52 | 0.52 | 73 | 1013.8 |
| 20260501215058 | 48 | 209 | 3.0 | 7.0 | 0.00 | 0.52 | 0.52 | 72 | 1015.3 |
| 20260501215005 | 48 | 345 | 0.0 | 0.0 | 0.00 | 0.52 | 0.52 | 73 | 1013.8 |
| 20260501214612 | 48 | 200 | 2.0 | 6.0 | 0.00 | 0.52 | 0.52 | 73 | 1015.3 |
| 20260501214506 | 48 | 346 | 0.0 | 0.0 | 0.00 | 0.52 | 0.52 | 73 | 1013.9 |
| 20260501214100 | 48 | 237 | 3.0 | 7.0 | 0.00 | 0.52 | 0.52 | 73 | 1015.4 |
| 20260501214005 | 48 | 346 | 0.0 | 0.0 | 0.00 | 0.52 | 0.52 | 73 | 1013.9 |
| 20260501213600 | 48 | 227 | 3.0 | 7.0 | 0.00 | 0.52 | 0.52 | 72 | 1015.3 |
| 20260501213507 | 48 | 346 | 0.0 | 0.0 | 0.00 | 0.52 | 0.52 | 73 | 1013.7 |
| 20260501213103 | 48 | 208 | 1.0 | 4.0 | 0.00 | 0.52 | 0.52 | 70 | 1015.3 |
| 20260501213005 | 49 | 346 | 0.0 | 0.0 | 0.00 | 0.52 | 0.52 | 70 | 1013.6 |
| 20260501212600 | 49 | 255 | 1.0 | 4.0 | 0.00 | 0.52 | 0.52 | 70 | 1015.3 |
| 20260501212503 | 49 | 350 | 0.0 | 0.0 | 0.00 | 0.52 | 0.52 | 71 | 1013.6 |
| 20260501212102 | 48 | 0 | 1.0 | 4.0 | 0.00 | 0.52 | 0.52 | 69 | 1015.2 |
| 20260501212003 | 48 | 350 | 0.0 | 0.0 | 0.00 | 0.52 | 0.52 | 68 | 1013.6 |
| 20260501211601 | 48 | 300 | 1.0 | 3.0 | 0.00 | 0.52 | 0.52 | 71 | 1015.2 |
| 20260501211503 | 48 | 349 | 0.0 | 0.0 | 0.00 | 0.52 | 0.52 | 71 | 1013.5 |
| 20260501211059 | 48 | 279 | 1.0 | 3.0 | 0.00 | 0.52 | 0.52 | 69 | 1015.2 |
| 20260501211006 | 48 | 349 | 0.0 | 0.0 | 0.00 | 0.52 | 0.52 | 71 | 1013.6 |
| 20260501210559 | 47 | 259 | 1.0 | 4.0 | 0.00 | 0.52 | 0.52 | 73 | 1015.1 |
| 20260501210504 | 47 | 355 | 0.0 | 0.0 | 0.00 | 0.52 | 0.52 | 75 | 1013.5 |
| 20260501210058 | 47 | 0 | 0.0 | 4.0 | 0.00 | 0.52 | 0.52 | 73 | 1015.1 |
| 20260501210002 | 47 | 355 | 0.0 | 0.0 | 0.00 | 0.52 | 0.52 | 72 | 1013.4 |
| 20260501205558 | 47 | 24 | 2.0 | 5.0 | 0.00 | 0.52 | 0.52 | 73 | 1015.1 |
| 20260501205503 | 47 | 355 | 0.0 | 0.0 | 0.00 | 0.52 | 0.52 | 74 | 1013.4 |
| 20260501205110 | 47 | 0 | 1.0 | 5.0 | 0.00 | 0.52 | 0.52 | 72 | 1015.1 |
| 20260501205003 | 47 | 355 | 0.0 | 0.0 | 0.00 | 0.52 | 0.52 | 72 | 1013.5 |
| 20260501204559 | 47 | 17 | 3.0 | 5.0 | 0.00 | 0.52 | 0.52 | 73 | 1015.1 |
| 20260501204503 | 47 | 355 | 0.0 | 0.0 | 0.00 | 0.52 | 0.52 | 73 | 1013.5 |
| 20260501204059 | 46 | 39 | 0.0 | 8.0 | 0.00 | 0.52 | 0.52 | 73 | 1015.1 |
| 20260501204004 | 46 | 355 | 0.0 | 0.0 | 0.00 | 0.52 | 0.52 | 73 | 1013.4 |
| 20260501203559 | 46 | 20 | 1.0 | 8.0 | 0.00 | 0.52 | 0.52 | 72 | 1015.1 |
| 20260501203502 | 46 | 355 | 0.0 | 0.0 | 0.00 | 0.52 | 0.52 | 74 | 1013.5 |
| 20260501203101 | 46 | 18 | 2.0 | 5.0 | 0.00 | 0.52 | 0.52 | 73 | 1015.1 |
| 20260501203001 | 46 | 355 | 0.0 | 0.0 | 0.00 | 0.52 | 0.52 | 73 | 1013.4 |
| 20260501202600 | 46 | 22 | 1.0 | 4.0 | 0.00 | 0.52 | 0.52 | 72 | 1015.1 |
| 20260501202501 | 47 | 355 | 0.0 | 0.0 | 0.00 | 0.52 | 0.52 | 73 | 1013.5 |
| 20260501202100 | 47 | 0 | 0.0 | 3.0 | 0.00 | 0.52 | 0.52 | 73 | 1015.2 |
| 20260501202001 | 47 | 355 | 0.0 | 0.0 | 0.00 | 0.52 | 0.52 | 73 | 1013.5 |
| 20260501201559 | 47 | 0 | 0.0 | 4.0 | 0.00 | 0.52 | 0.52 | 73 | 1015.1 |
| 20260501201503 | 47 | 355 | 0.0 | 0.0 | 0.00 | 0.52 | 0.52 | 73 | 1013.6 |
| 20260501201104 | 47 | 281 | 1.0 | 6.0 | 0.00 | 0.52 | 0.52 | 72 | 1015.0 |
| 20260501201100 | 47 | 19 | 0.0 | 0.0 | 0.00 | 0.52 | 0.52 | 72 | 1013.4 |
| 20260501200601 | 47 | 19 | 0.0 | 0.0 | 0.00 | 0.52 | 0.52 | 72 | 1013.4 |
| 20260501200100 | 47 | 341 | 3.0 | 5.0 | 0.00 | 0.52 | 0.52 | 72 | 1014.9 |
| 20260501195600 | 47 | 19 | 0.0 | 0.0 | 0.00 | 0.52 | 0.52 | 74 | 1013.3 |
| 20260501195559 | 47 | 32 | 2.0 | 7.0 | 0.00 | 0.52 | 0.52 | 74 | 1014.8 |
| 20260501195102 | 46 | 9 | 0.0 | 0.0 | 0.00 | 0.52 | 0.52 | 73 | 1013.3 |
| 20260501194604 | 46 | 26 | 2.0 | 7.0 | 0.00 | 0.52 | 0.52 | 73 | 1014.9 |
| 20260501194559 | 46 | 55 | 0.0 | 0.0 | 0.00 | 0.52 | 0.52 | 74 | 1013.5 |
| 20260501194059 | 46 | 344 | 3.0 | 7.0 | 0.00 | 0.52 | 0.52 | 74 | 1015.1 |
| 20260501193559 | 46 | 59 | 0.0 | 0.0 | 0.00 | 0.52 | 0.52 | 75 | 1013.4 |
| 20260501193058 | 46 | 60 | 0.0 | 0.0 | 0.00 | 0.52 | 0.52 | 75 | 1013.4 |
| 20260501192559 | 46 | 49 | 2.0 | 6.0 | 0.00 | 0.52 | 0.52 | 76 | 1015.1 |
| 20260501192100 | 46 | 352 | 2.0 | 5.0 | 0.00 | 0.52 | 0.52 | 77 | 1015.1 |
| 20260501191606 | 45 | 352 | 2.0 | 7.0 | 0.00 | 0.52 | 0.52 | 77 | 1015.1 |
| 20260501191558 | 45 | 349 | 0.0 | 0.0 | 0.00 | 0.52 | 0.52 | 78 | 1013.6 |
| 20260501191100 | 45 | 28 | 4.0 | 7.0 | 0.00 | 0.52 | 0.52 | 79 | 1015.2 |
| 20260501191058 | 45 | 24 | 0.0 | 0.0 | 0.00 | 0.52 | 0.52 | 80 | 1013.5 |
| 20260501190603 | 45 | 26 | 3.0 | 10.0 | 0.00 | 0.52 | 0.52 | 80 | 1015.3 |
| 20260501190558 | 45 | 24 | 0.0 | 0.0 | 0.00 | 0.52 | 0.52 | 80 | 1013.6 |
| 20260501190126 | 45 | 17 | 5.0 | 10.0 | 0.00 | 0.52 | 0.52 | 80 | 1015.1 |
| 20260501185559 | 44 | 38 | 3.0 | 10.0 | 0.00 | 0.52 | 0.52 | 81 | 1015.1 |
| 20260501185556 | 44 | 348 | 0.0 | 0.0 | 0.00 | 0.52 | 0.52 | 81 | 1013.4 |
| 20260501185100 | 44 | 349 | 0.0 | 1.0 | 0.00 | 0.52 | 0.52 | 81 | 1013.3 |
| 20260501185059 | 44 | 5 | 5.0 | 10.0 | 0.00 | 0.52 | 0.52 | 81 | 1015.1 |
| 20260501184559 | 44 | 27 | 2.0 | 11.0 | 0.00 | 0.52 | 0.52 | 82 | 1015.0 |
| 20260501184556 | 44 | 351 | 0.0 | 1.0 | 0.00 | 0.52 | 0.52 | 83 | 1013.3 |
| 20260501184101 | 44 | 15 | 4.0 | 13.0 | 0.00 | 0.52 | 0.52 | 82 | 1015.0 |
| 20260501184056 | 44 | 342 | 0.0 | 1.0 | 0.00 | 0.52 | 0.52 | 82 | 1013.3 |
| 20260501183602 | 44 | 5 | 8.0 | 14.0 | 0.00 | 0.52 | 0.52 | 81 | 1014.9 |
| 20260501183556 | 44 | 349 | 0.0 | 1.0 | 0.00 | 0.52 | 0.52 | 82 | 1013.3 |
| 20260501183059 | 44 | 22 | 7.0 | 16.0 | 0.00 | 0.52 | 0.52 | 81 | 1014.8 |
| 20260501183056 | 44 | 355 | 0.0 | 2.0 | 0.00 | 0.52 | 0.52 | 81 | 1013.3 |
| 20260501182558 | 44 | 41 | 7.0 | 16.0 | 0.00 | 0.52 | 0.52 | 82 | 1014.8 |
| 20260501182555 | 44 | 9 | 0.0 | 4.0 | 0.00 | 0.52 | 0.52 | 82 | 1013.1 |
| 20260501182058 | 44 | 342 | 10.0 | 15.0 | 0.00 | 0.52 | 0.52 | 83 | 1014.6 |
| 20260501181602 | 44 | 21 | 9.0 | 15.0 | 0.00 | 0.52 | 0.52 | 82 | 1014.6 |
| 20260501181555 | 44 | 355 | 0.0 | 2.0 | 0.00 | 0.52 | 0.52 | 82 | 1012.9 |
| 20260501181058 | 45 | 352 | 5.0 | 13.0 | 0.00 | 0.52 | 0.52 | 80 | 1014.6 |
| 20260501181055 | 45 | 339 | 0.0 | 8.0 | 0.00 | 0.52 | 0.52 | 81 | 1012.9 |
| 20260501180558 | 45 | 24 | 6.0 | 12.0 | 0.00 | 0.52 | 0.52 | 78 | 1014.6 |
| 20260501180555 | 45 | 344 | 1.0 | 8.0 | 0.00 | 0.52 | 0.52 | 79 | 1012.9 |
| 20260501180104 | 46 | 350 | 4.0 | 11.0 | 0.00 | 0.52 | 0.52 | 79 | 1014.5 |
| 20260501180055 | 46 | 339 | 0.0 | 1.0 | 0.00 | 0.52 | 0.52 | 79 | 1012.7 |
| 20260501175559 | 45 | 5 | 5.0 | 11.0 | 0.00 | 0.52 | 0.52 | 80 | 1014.4 |
| 20260501175554 | 45 | 346 | 0.0 | 1.0 | 0.00 | 0.52 | 0.52 | 80 | 1012.8 |
| 20260501175059 | 45 | 43 | 2.0 | 12.0 | 0.00 | 0.52 | 0.52 | 81 | 1014.4 |
| 20260501175053 | 45 | 25 | 0.0 | 1.0 | 0.00 | 0.52 | 0.52 | 81 | 1012.8 |
| 20260501174612 | 45 | 15 | 4.0 | 13.0 | 0.00 | 0.52 | 0.52 | 80 | 1014.3 |
| 20260501174553 | 45 | 343 | 0.0 | 1.0 | 0.00 | 0.52 | 0.52 | 81 | 1012.6 |
| 20260501174100 | 45 | 19 | 7.0 | 14.0 | 0.00 | 0.52 | 0.52 | 79 | 1014.2 |
| 20260501174053 | 45 | 12 | 0.0 | 1.0 | 0.00 | 0.52 | 0.52 | 80 | 1012.7 |
| 20260501173559 | 45 | 12 | 7.0 | 14.0 | 0.00 | 0.52 | 0.52 | 78 | 1014.3 |
| 20260501173555 | 45 | 360 | 0.0 | 2.0 | 0.00 | 0.52 | 0.52 | 79 | 1012.6 |
| 20260501173108 | 46 | 26 | 8.0 | 14.0 | 0.00 | 0.52 | 0.52 | 78 | 1014.2 |
| 20260501173102 | 45 | 346 | 0.0 | 2.0 | 0.00 | 0.52 | 0.52 | 78 | 1012.7 |
| 20260501172600 | 46 | 9 | 7.0 | 12.0 | 0.00 | 0.52 | 0.52 | 79 | 1014.2 |
| 20260501172553 | 46 | 360 | 0.0 | 1.0 | 0.00 | 0.52 | 0.52 | 80 | 1012.6 |
| 20260501172103 | 45 | 5 | 8.0 | 12.0 | 0.00 | 0.52 | 0.52 | 78 | 1014.3 |
| 20260501172056 | 45 | 24 | 0.0 | 1.0 | 0.00 | 0.52 | 0.52 | 79 | 1012.6 |
| 20260501171602 | 45 | 29 | 5.0 | 12.0 | 0.00 | 0.52 | 0.52 | 79 | 1014.3 |
| 20260501171552 | 45 | 342 | 0.0 | 1.0 | 0.00 | 0.52 | 0.52 | 80 | 1012.7 |
| 20260501171058 | 46 | 360 | 6.0 | 12.0 | 0.00 | 0.52 | 0.52 | 79 | 1014.3 |
| 20260501171054 | 46 | 333 | 0.0 | 1.0 | 0.00 | 0.52 | 0.52 | 79 | 1012.7 |
| 20260501170602 | 46 | 21 | 6.0 | 13.0 | 0.00 | 0.52 | 0.52 | 80 | 1014.2 |
| 20260501170552 | 46 | 360 | 0.0 | 1.0 | 0.00 | 0.52 | 0.52 | 80 | 1012.6 |
| 20260501170054 | 46 | 5 | 0.0 | 1.0 | 0.00 | 0.52 | 0.52 | 80 | 1012.6 |
| 20260501165602 | 46 | 13 | 8.0 | 13.0 | 0.00 | 0.52 | 0.52 | 81 | 1014.2 |
| 20260501165552 | 46 | 346 | 0.0 | 1.0 | 0.00 | 0.52 | 0.52 | 81 | 1012.5 |
| 20260501165059 | 46 | 5 | 8.0 | 13.0 | 0.00 | 0.52 | 0.52 | 80 | 1014.0 |
| 20260501165051 | 46 | 34 | 0.0 | 1.0 | 0.00 | 0.52 | 0.52 | 80 | 1012.4 |
| 20260501164606 | 45 | 352 | 9.0 | 15.0 | 0.00 | 0.52 | 0.52 | 81 | 1014.0 |
| 20260501164558 | 46 | 360 | 0.0 | 1.0 | 0.00 | 0.52 | 0.52 | 81 | 1012.4 |
| 20260501164059 | 45 | 11 | 7.0 | 15.0 | 0.00 | 0.52 | 0.52 | 82 | 1014.0 |
| 20260501164050 | 45 | 21 | 0.0 | 2.0 | 0.00 | 0.52 | 0.52 | 83 | 1012.4 |
| 20260501163601 | 45 | 36 | 9.0 | 15.0 | 0.00 | 0.52 | 0.52 | 83 | 1014.0 |
| 20260501163551 | 45 | 17 | 0.0 | 2.0 | 0.00 | 0.52 | 0.52 | 83 | 1012.3 |
| 20260501163115 | 45 | 29 | 8.0 | 14.0 | 0.00 | 0.52 | 0.52 | 83 | 1013.9 |
| 20260501163050 | 45 | 16 | 0.0 | 2.0 | 0.00 | 0.52 | 0.52 | 84 | 1012.3 |
| 20260501162600 | 45 | 27 | 8.0 | 14.0 | 0.00 | 0.52 | 0.52 | 83 | 1013.9 |
| 20260501162549 | 45 | 44 | 0.0 | 2.0 | 0.00 | 0.52 | 0.52 | 84 | 1012.4 |
| 20260501162059 | 45 | 31 | 8.0 | 16.0 | 0.00 | 0.52 | 0.52 | 83 | 1014.0 |
| 20260501162049 | 45 | 355 | 0.0 | 2.0 | 0.00 | 0.52 | 0.52 | 84 | 1012.2 |
| 20260501161613 | 45 | 52 | 10.0 | 16.0 | 0.00 | 0.52 | 0.52 | 83 | 1013.7 |
| 20260501161600 | 45 | 355 | 0.0 | 2.0 | 0.00 | 0.52 | 0.52 | 83 | 1012.1 |
| 20260501161059 | 45 | 38 | 9.0 | 15.0 | 0.00 | 0.52 | 0.52 | 83 | 1013.9 |
| 20260501161048 | 45 | 17 | 0.0 | 2.0 | 0.00 | 0.52 | 0.52 | 83 | 1012.3 |
| 20260501160558 | 45 | 22 | 9.0 | 15.0 | 0.00 | 0.52 | 0.52 | 83 | 1014.0 |
| 20260501160548 | 45 | 5 | 0.0 | 2.0 | 0.00 | 0.52 | 0.52 | 84 | 1012.4 |
| 20260501160105 | 44 | 5 | 10.0 | 15.0 | 0.00 | 0.52 | 0.52 | 83 | 1014.0 |
| 20260501160050 | 44 | 348 | 0.0 | 2.0 | 0.00 | 0.52 | 0.52 | 84 | 1012.3 |
| 20260501155558 | 44 | 44 | 7.0 | 13.0 | 0.00 | 0.52 | 0.52 | 85 | 1014.0 |
| 20260501155548 | 44 | 348 | 0.0 | 1.0 | 0.00 | 0.52 | 0.52 | 85 | 1012.2 |